Tracking 32938 objects as of 13-Jan-2026
HD Live streaming from Space Station
objects crossing your sky now

ATLAS 2AS CENTAUR R/B

Track ATLAS 2AS CENTAUR R/B now!


NORAD ID: 24937
Int'l Code: 1997-050B
Perigee: 324.8 km
Apogee: 36,152.9 km
Inclination: 19.2 °
Period: 640.4 minutes
Semi major axis: 24609 km
RCS: 13.7884 m2 (large)
Launch date: September 4, 1997
Source: United States (US)
Launch site: AIR FORCE EASTERN TEST RANGE (AFETR)

Note: This is a ROCKET BODY
Your satellite tracking list
Your tracking list is empty




NASA's NSSDC Master Catalog

Two Line Element Set (TLE):
1 24937U 97050B   26012.79315042  .00001298  00000-0  12477-2 0  9991
2 24937  19.1989   8.7946 7279222 220.5446  52.7016  2.24874034211551
Source of the keplerian elements: AFSPC